Regional Weather Roundup
Issued by NWS

Home | Current Version | Previous Version | Text Only | Print | Product List | Glossary On
Versions: 1 2 3 4 5 6 7 8 9 10 11 12 13 14 15 16 17 18 19 20 21 22 23 24 25 26 27 28 29 30 31 32 33 34 35 36 37 38 39 40 41 42 43 44 45 46 47 48 49 50
000
ASUS45 KTFX 050210
RWRMT
MONTANA REGIONAL WEATHER ROUNDUP
NATIONAL WEATHER SERVICE GREAT FALLS MT
800 PM MDT TUE AUG 04 2015

NOTE: "FAIR" INDICATES FEW OR NO CLOUDS BELOW 12000 FEET WITH NO
SIGNIFICANT WEATHER AND/OR OBSTRUCTIONS TO VISIBILITY.

MTZ001>007-043-050300-
WEST OF THE DIVIDE

CITY           SKY/WX    TMP DP  RH WIND       PRES   REMARKS
KALISPELL      FAIR      82  43  25 S6        29.84F
MISSOULA       FAIR      82  42  24 NW10      29.89R
BUTTE          FAIR      68  49  50 N13       30.06F
MULLAN PASS    FAIR      65  35  33 VRB5      30.07F
DEER LODGE       N/A     72  45  37 S9        30.05R
EUREKA           N/A     84  37  18 SW12      29.83R
HAMILTON         N/A     75  45  33 CALM      29.94R
LIBBY            N/A     82  37  20 S3        29.85S
PLAINS           N/A     86  45  23 W3        29.87R
RONAN            N/A     78  50  37 CALM      29.93F
$$

MTZ008-052>055-050300-
SOUTHWEST MONTANA

CITY           SKY/WX    TMP DP  RH WIND       PRES   REMARKS
BOZEMAN        FAIR      69  53  56 SE12      30.00F
DILLON         FAIR      73  51  46 NE12      30.00R
W YELLOWSTONE  MOCLDY    61  48  63 E5        30.20R
$$

MTZ009-010-012-014-046-048-049-054-050300-
EAST SLOPES AND CENTRAL MONTANA

CITY           SKY/WX    TMP DP  RH WIND       PRES   REMARKS
CUT BANK       FAIR      78  40  25 SW16      29.90S
GREAT FALLS    FAIR      73  51  46 E6        29.93S
MALMSTROM AFB  FAIR      73  52  47 NE5       29.92F
HELENA         FAIR      76  51  41 E10       29.92S
CONRAD           N/A     69  58  68 W12       29.99R
$$

MTZ011-013-016-021-045-047-050-051-050300-
NORTH CENTRAL MONTANA

CITY           SKY/WX    TMP DP  RH WIND       PRES   REMARKS
HAVRE          FAIR      78  52  40 SW8       29.85S
LEWISTOWN      FAIR      73  50  44 CALM      29.96S
CHINOOK          N/A     77  57  50 CALM      29.85R
FORT BENTON      N/A     70  54  56 SW14G20   29.92R
$$

MTZ017>020-022>027-061-062-050300-
NORTHEAST MONTANA

CITY           SKY/WX    TMP DP  RH WIND       PRES   REMARKS
GLASGOW        LGT RAIN  70  61  73 NE14      29.84F
JORDAN           N/A     68  60  75 W9        29.95R
SIDNEY         CLOUDY   N/A N/A N/A SE6       29.86R
WOLF POINT     LGT RAIN  70  63  78 CALM      29.90R
MALTA            N/A     74  56  53 CALM      29.83F
PLENTYWOOD       N/A     79  55  44 E15       29.86F
POPLAR           N/A     73  63  68 W9G16     29.91R
$$

MTZ028>42-056>058-050300-
SOUTHCENTRAL AND SOUTHEAST MONTANA

CITY           SKY/WX    TMP DP  RH WIND       PRES   REMARKS
BAKER          LGT RAIN  65  62  90 W10       29.97R
BILLINGS       MOCLDY    70  49  47 W5        29.99F
LIVINGSTON     MOCLDY    73  50  44 E8        30.03S
MILES CITY     LGT RAIN  66  61  84 SE15G23   29.95R
EKALAKA          N/A     62  57  83 W9        29.98R
FORSYTH          N/A     77  54  44 W6        29.93R
LAUREL           N/A     69  51  52 CALM      29.99S
$$

REGIONAL REPORTS...DAKOTAS

CITY           SKY/WX    TMP DP  RH WIND       PRES   REMARKS
WILLISTON      CLOUDY    82  55  39 SE15      29.88R
MINOT          PTCLDY    69  54  58 E8        29.95R
DICKINSON      PTCLDY    73  56  54 SE9       29.92R
CROSBY         FAIR      72  54  53 E10       29.92S
BISMARCK       PTCLDY    76  61  59 SE6       29.94R
GRAND FORKS    CLEAR     66  56  70 N6        30.00S
FARGO          CLEAR     68  55  63 E5        30.00R
BUFFALO SD       N/A     78  60  53 SE10      29.89R
RAPID CITY     MOCLDY    74  60  61 SE5       29.96R
$$

REGIONAL REPORTS...WYOMING/IDAHO/WASHINGTON

CITY           SKY/WX    TMP DP  RH WIND       PRES   REMARKS
GILLETTE       CLOUDY    68  55  63 SE6       30.04R
SHERIDAN       FAIR      71  55  56 NW5       30.01R
BUFFALO WY     MOCLDY    69  55  60 N5        30.09R
CODY           MOCLDY    64  46  52 N13G22    30.11R
YELLOWSTONE LA   N/A     51  48  89 CALM      30.31F
IDAHO FALLS    LGT RAIN  76  51  41 W6        30.04R
SALMON         FAIR      81  45  28 NE6       29.88S
BOISE          FAIR      89  42  19 W6        29.88S
SPOKANE        FAIR      84  38  19 SW14      29.84S
$$

REGIONAL REPORTS...ALBERTA

CITY           SKY/WX    TMP DP  RH WIND       PRES   REMARKS
EDMONTON       PTSUNNY   66  55  68 N10       29.90R
CALGARY        TSTM      55  52  88 N5        29.98S
LETHBRIDGE     PTCLDY    77  55  47 E7        29.83S
MEDICINE HAT   CLOUDY    82  54  36 W6        29.81S
WATERTON GATE    N/A     72  43  35 SW8         N/A
CARDSTON         N/A     77  46  33 S6          N/A
MILK RIVER       N/A     79  48  34 S2          N/A
ONEFOUR          N/A     77  50  38 NW2         N/A
$$

REGIONAL REPORTS...SASKATCHEWAN

CITY           SKY/WX    TMP DP  RH WIND       PRES   REMARKS
SWIFT CURRENT  CLOUDY    73  57  56 W6        29.84S
REGINA         CLOUDY    73  54  49 SE15G22   29.88R
SASKATOON      CLOUDY    66  61  82 E14G22    29.83F
CYPRESS HILLS    N/A     64  52  63 SW3         N/A
VAL MARIE        N/A     73  55  53 W3          N/A
ROCKGLEN         N/A     64  61  88 W5          N/A
ASSINIBOIA       N/A     63  59  88 N9          N/A
$$



USA.gov is the U.S. government's official web portal to all federal, state and local government web resources and services.